Port Huron, MI

10:15 PM EDT on June 23, 2017 (GMT -0400)
Saint Clair County International

Weather History for KPHN - January, 2012

Change the Weather History Date:

Friday, January 27, 2012

  Actual Average (KMTC) Record (KMTC)
Temperature  
Mean Temperature 34 °F -  
Max Temperature 39 °F 29 °F 57 °F (2002)
Min Temperature 30 °F 16 °F -5 °F (1966)
Degree Days  
Heating Degree Days 30    
Moisture  
Dew Point 30 °F    
Average Humidity 87    
Maximum Humidity 100    
Minimum Humidity 60    
Precipitation  
Precipitation 0.00 in - - ()
Sea Level Pressure  
Sea Level Pressure 29.64 in    
Wind  
Wind Speed 7 mph (WNW)    
Max Wind Speed 14 mph    
Max Gust Speed 23 mph    
Visibility 6 miles    
Events Rain , Snow    
Averages and records for this station are not official NWS values.
T = Trace of Precipitation, MM = Missing Value Source: NWS Daily Summary

Daily Weather History Graph

Daily Weather History Graph

Search for Another Location

Airport or City:

Trip Planner

Search our weather history database for the weather conditions in past years. The results will help you decide how hot, cold, wet, or windy it might be!

Date:

Astronomy

Jan. 27, 2012 Rise Set
Actual Time 7:50 AM EST 5:35 PM EST
Civil Twilight 7:19 AM EST 6:06 PM EST
Nautical Twilight 6:45 AM EST 6:40 PM EST
Astronomical Twilight 6:12 AM EST 7:13 PM EST
Moon 9:36 AM EST (1/27) 10:34 PM EST (1/27)
Length of Visible Light 10h 46m
Length of Day
9h 45m
Waxing Crescent, 19% of the Moon is Illuminated
Jan 27
Waxing Crescent
Jan 30
First Quarter
Feb 7
Full
Feb 14
Last Quarter
Feb 21
New

Hourly Weather History & Observations

Time (EST) Temp. Windchill Dew Point Humidity Pressure Visibility Wind Dir Wind Speed Gust Speed Precip Events Conditions
12:18 AM 33.8 °F 28.6 °F 32.0 °F 93% 29.52 in 3.0 mi NNE 5.8 mph - N/A   Overcast
12:38 AM 33.8 °F 28.6 °F 32.0 °F 93% 29.51 in 3.0 mi NNE 5.8 mph - N/A   Overcast
12:58 AM 33.8 °F 30.8 °F 32.0 °F 93% 29.50 in 4.0 mi North 3.5 mph - N/A   Overcast
1:18 AM 33.8 °F 28.6 °F 32.0 °F 93% 29.49 in 4.0 mi North 5.8 mph - N/A   Overcast
1:38 AM 33.8 °F 28.6 °F 32.0 °F 93% 29.48 in 4.0 mi North 5.8 mph - N/A   Overcast
1:58 AM 33.8 °F 28.6 °F 32.0 °F 93% 29.49 in 4.0 mi NNW 5.8 mph - N/A   Overcast
2:18 AM 33.8 °F 27.0 °F 32.0 °F 93% 29.47 in 3.0 mi NNW 8.1 mph - N/A   Overcast
2:38 AM 33.8 °F 28.6 °F 32.0 °F 93% 29.46 in 3.0 mi North 5.8 mph - N/A Rain Light Rain
2:58 AM 33.8 °F 30.8 °F 32.0 °F 93% 29.47 in 4.0 mi NNW 3.5 mph - N/A   Overcast
3:18 AM 33.8 °F 29.6 °F 32.0 °F 93% 29.47 in 4.0 mi NNW 4.6 mph - N/A   Overcast
3:38 AM 33.8 °F 29.6 °F 32.0 °F 93% 29.46 in 3.0 mi NNW 4.6 mph - N/A Snow Light Snow
3:58 AM 32.0 °F 27.5 °F 32.0 °F 100% 29.46 in 2.5 mi NNW 4.6 mph - N/A Snow Light Snow
4:18 AM 32.0 °F 27.5 °F 32.0 °F 100% 29.47 in 1.8 mi NW 4.6 mph - N/A Snow Light Snow
4:38 AM 32.0 °F 27.5 °F 32.0 °F 100% 29.47 in 1.8 mi NW 4.6 mph - N/A Snow Light Snow
4:58 AM 32.0 °F 26.4 °F 32.0 °F 100% 29.48 in 1.5 mi NW 5.8 mph - N/A Snow Light Snow
5:18 AM 32.0 °F 26.4 °F 32.0 °F 100% 29.48 in 1.5 mi NW 5.8 mph - N/A Snow Light Snow
5:38 AM 32.0 °F 25.6 °F 32.0 °F 100% 29.49 in 2.0 mi NW 6.9 mph - N/A Snow Light Snow
5:58 AM 32.0 °F 24.8 °F 32.0 °F 100% 29.50 in 2.5 mi NW 8.1 mph - N/A Snow Light Snow
6:18 AM 32.0 °F 24.8 °F 32.0 °F 100% 29.51 in 2.0 mi WNW 8.1 mph - N/A Snow Light Snow
6:38 AM 32.0 °F 25.6 °F 32.0 °F 100% 29.51 in 1.2 mi NW 6.9 mph - N/A Snow Light Snow
6:58 AM 32.0 °F 24.8 °F 32.0 °F 100% 29.52 in 3.0 mi NW 8.1 mph - N/A Snow Light Snow
7:18 AM 32.0 °F 24.2 °F 32.0 °F 100% 29.53 in 3.0 mi WNW 9.2 mph - N/A Snow Light Snow
7:38 AM 32.0 °F 24.2 °F 32.0 °F 100% 29.55 in 2.5 mi WNW 9.2 mph - N/A Snow Light Snow
7:58 AM 32.0 °F 24.8 °F 32.0 °F 100% 29.56 in 10.0 mi WNW 8.1 mph - N/A   Overcast
8:18 AM 32.0 °F 23.0 °F 32.0 °F 100% 29.58 in 5.0 mi WNW 11.5 mph 16.1 mph N/A   Overcast
8:38 AM 32.0 °F 23.6 °F 32.0 °F 100% 29.59 in 3.0 mi WNW 10.4 mph 19.6 mph N/A   Overcast
8:58 AM 33.8 °F 26.4 °F 32.0 °F 93% 29.60 in 4.0 mi WNW 9.2 mph - N/A   Overcast
9:18 AM 33.8 °F 25.8 °F 32.0 °F 93% 29.61 in 3.0 mi WNW 10.4 mph 17.3 mph N/A   Overcast
9:38 AM 33.8 °F 25.3 °F 32.0 °F 93% 29.63 in 2.0 mi WNW 11.5 mph 16.1 mph N/A   Overcast
9:58 AM 33.8 °F 25.8 °F 32.0 °F 93% 29.64 in 2.5 mi WNW 10.4 mph - N/A   Overcast
10:18 AM 33.8 °F 27.0 °F 32.0 °F 93% 29.66 in 5.0 mi West 8.1 mph - N/A   Overcast
10:38 AM 33.8 °F 27.7 °F 32.0 °F 93% 29.67 in 5.0 mi WNW 6.9 mph - N/A   Overcast
10:58 AM 33.8 °F 27.0 °F 32.0 °F 93% 29.68 in 5.0 mi West 8.1 mph - N/A   Overcast
11:18 AM 33.8 °F 27.0 °F 32.0 °F 93% 29.69 in 10.0 mi NW 8.1 mph - N/A   Overcast
11:38 AM 33.8 °F 25.3 °F 30.2 °F 87% 29.70 in 10.0 mi WNW 11.5 mph - N/A   Overcast
11:58 AM 33.8 °F 25.8 °F 30.2 °F 87% 29.70 in 10.0 mi WNW 10.4 mph - N/A   Overcast
12:18 PM 35.6 °F 28.6 °F 30.2 °F 81% 29.71 in 10.0 mi WNW 9.2 mph - N/A   Overcast
12:38 PM 35.6 °F 28.6 °F 32.0 °F 87% 29.71 in 10.0 mi West 9.2 mph - N/A   Overcast
12:58 PM 35.6 °F 29.2 °F 30.2 °F 81% 29.72 in 10.0 mi West 8.1 mph - N/A   Overcast
1:18 PM 35.6 °F 28.6 °F 32.0 °F 87% 29.73 in 10.0 mi West 9.2 mph - N/A   Overcast
1:38 PM 35.6 °F 28.0 °F 30.2 °F 81% 29.74 in 10.0 mi West 10.4 mph 16.1 mph N/A   Overcast
1:58 PM 35.6 °F 28.0 °F 30.2 °F 81% 29.74 in 10.0 mi West 10.4 mph - N/A   Overcast
2:18 PM 35.6 °F 28.0 °F 30.2 °F 81% 29.75 in 10.0 mi WNW 10.4 mph - N/A   Overcast
2:38 PM 37.4 °F 29.3 °F 30.2 °F 75% 29.76 in 10.0 mi WNW 12.7 mph 19.6 mph N/A   Overcast
2:58 PM 37.4 °F 32.8 °F 30.2 °F 75% 29.77 in 10.0 mi WNW 5.8 mph - N/A   Overcast
3:18 PM 37.4 °F 29.8 °F 28.4 °F 70% 29.78 in 10.0 mi WNW 11.5 mph 23.0 mph N/A   Overcast
3:38 PM 39.2 °F 31.2 °F 26.6 °F 61% 29.80 in 10.0 mi WNW 13.8 mph 20.7 mph N/A   Overcast
3:58 PM 37.4 °F 30.3 °F 24.8 °F 60% 29.80 in 10.0 mi WNW 10.4 mph 18.4 mph N/A   Mostly Cloudy
4:18 PM 35.6 °F 29.2 °F 26.6 °F 70% 29.80 in 10.0 mi WNW 8.1 mph - N/A   Scattered Clouds
4:38 PM 37.4 °F 32.1 °F 24.8 °F 60% 29.81 in 10.0 mi WNW 6.9 mph - N/A   Clear
4:58 PM 37.4 °F 32.8 °F 24.8 °F 60% 29.83 in 10.0 mi West 5.8 mph - N/A   Scattered Clouds
5:18 PM 35.6 °F 32.8 °F 24.8 °F 65% 29.84 in 10.0 mi West 3.5 mph - N/A   Scattered Clouds
5:38 PM 35.6 °F 32.8 °F 24.8 °F 65% 29.84 in 10.0 mi WSW 3.5 mph - N/A   Clear
5:58 PM 33.8 °F 30.8 °F 24.8 °F 70% 29.86 in 10.0 mi WSW 3.5 mph - N/A   Clear
6:18 PM 32.0 °F - 24.8 °F 75% 29.87 in 10.0 mi Calm Calm - N/A   Clear
6:38 PM 32.0 °F 28.7 °F 24.8 °F 75% 29.89 in 10.0 mi SW 3.5 mph - N/A   Clear
6:58 PM 30.2 °F 25.4 °F 24.8 °F 80% 29.90 in 10.0 mi SSW 4.6 mph - N/A   Clear
7:18 PM 32.0 °F 27.5 °F 24.8 °F 75% 29.91 in 10.0 mi SW 4.6 mph - N/A   Clear
7:38 PM 32.0 °F 28.7 °F 24.8 °F 75% 29.91 in 10.0 mi SW 3.5 mph - N/A   Clear
7:58 PM 30.2 °F 25.4 °F 24.8 °F 80% 29.93 in 10.0 mi SSW 4.6 mph - N/A   Clear
8:18 PM 28.4 °F 23.3 °F 23.0 °F 80% 29.93 in 10.0 mi SSW 4.6 mph - N/A   Clear
8:38 PM 30.2 °F 25.4 °F 23.0 °F 75% 29.93 in 10.0 mi SSW 4.6 mph - N/A   Clear
8:58 PM 30.2 °F 25.4 °F 24.8 °F 80% 29.93 in 10.0 mi SSW 4.6 mph - N/A   Clear
9:18 PM 30.2 °F 25.4 °F 23.0 °F 75% 29.93 in 10.0 mi SSW 4.6 mph - N/A   Clear
9:38 PM 30.2 °F 25.4 °F 23.0 °F 75% 29.93 in 10.0 mi SSW 4.6 mph - N/A   Clear
9:58 PM 30.2 °F 25.4 °F 23.0 °F 75% 29.93 in 10.0 mi SSW 4.6 mph - N/A   Clear
10:18 PM 32.0 °F 28.7 °F 24.8 °F 75% 29.93 in 10.0 mi SW 3.5 mph - N/A   Clear
10:38 PM 30.2 °F 26.7 °F 24.8 °F 80% 29.93 in 10.0 mi SSW 3.5 mph - N/A   Clear
10:58 PM 30.2 °F - 24.8 °F 80% 29.94 in 10.0 mi Calm Calm - N/A   Clear
11:18 PM 30.2 °F 25.4 °F 23.0 °F 75% 29.94 in 10.0 mi SSW 4.6 mph - N/A   Clear
11:38 PM 30.2 °F 25.4 °F 24.8 °F 80% 29.93 in 10.0 mi SSW 4.6 mph - N/A   Scattered Clouds
11:58 PM 28.4 °F 23.3 °F 23.0 °F 80% 29.93 in 10.0 mi SSW 4.6 mph - N/A   Scattered Clouds